CW2274 Weather Reports


Display with metric or nautical units.
time (UTC)temp
F
wind
direction
speed
MPH
gust
MPH
rain 1hr
in
rain 24hr
in
rain mn
in
humidity
%
barometer
mb
20260901172522 85 54 3.0 7.0 0.00 0.76 0.00 50 1019.1
20260901172016 84 98 2.0 4.0 0.00 0.76 0.00 51 1019.2
20260901171531 84 97 1.0 4.0 0.00 0.76 0.00 53 1019.1
20260901171031 84 97 2.0 4.0 0.00 0.76 0.00 54 1019.2
20260901170525 84 98 3.0 4.0 0.00 0.76 0.00 54 1019.2
20260901170033 83 99 2.0 4.0 0.00 0.76 0.00 54 1019.1
20260901165513 83 98 2.0 7.0 0.00 0.76 0.00 57 1019.2
20260901165028 82 98 4.0 7.0 0.00 0.76 0.00 56 1019.2
20260901164523 82 122 4.0 6.0 0.00 0.76 0.00 57 1019.2
20260901164019 81 135 2.0 6.0 0.00 0.76 0.00 59 1019.2
20260901163518 81 87 2.0 5.0 0.00 0.76 0.00 61 1019.1
20260901163013 81 85 3.0 7.0 0.00 0.76 0.00 63 1019.1
20260901162528 81 91 3.0 7.0 0.00 0.76 0.00 64 1019.1
20260901162024 81 107 3.0 7.0 0.00 0.76 0.00 63 1019.1
20260901161519 80 98 4.0 6.0 0.00 0.76 0.00 64 1019.2
20260901161014 80 79 3.0 7.0 0.00 0.76 0.00 65 1019.2
20260901160529 80 75 4.0 7.0 0.00 0.76 0.00 65 1019.2
20260901160036 79 65 4.0 7.0 0.00 0.76 0.00 65 1019.3
20260901155520 79 79 4.0 7.0 0.00 0.76 0.00 67 1019.3
20260901155015 79 71 3.0 7.0 0.00 0.76 0.00 67 1019.2
20260901154530 78 100 4.0 6.0 0.00 0.76 0.00 70 1019.1
20260901154025 78 107 3.0 8.0 0.00 0.76 0.00 69 1019.2
20260901153520 78 90 3.0 8.0 0.00 0.76 0.00 69 1019.2
20260901153016 78 102 4.0 7.0 0.00 0.76 0.00 69 1019.2
20260901152512 77 124 4.0 8.0 0.00 0.76 0.00 71 1019.2
20260901152031 77 137 4.0 8.0 0.00 0.76 0.00 70 1019.2
20260901151526 77 148 2.0 9.0 0.00 0.76 0.00 73 1019.2
20260901151021 76 159 5.0 9.0 0.00 0.76 0.00 72 1019.2
20260901150517 76 133 5.0 8.0 0.00 0.76 0.00 72 1019.2
20260901150027 76 142 3.0 8.0 0.00 0.76 0.00 74 1019.2
20260901145527 75 99 5.0 10.0 0.00 0.76 0.00 74 1019.2
20260901145022 75 110 5.0 10.0 0.00 0.76 0.00 74 1019.3
20260901144522 75 123 4.0 9.0 0.00 0.76 0.00 74 1019.2
20260901144016 75 192 2.0 9.0 0.00 0.76 0.00 76 1019.2
20260901143513 75 159 4.0 8.0 0.00 0.76 0.00 74 1019.2
20260901143027 75 127 2.0 4.0 0.00 0.76 0.00 77 1019.2
20260901142523 74 127 2.0 5.0 0.00 0.76 0.00 77 1019.2
20260901142018 74 127 3.0 5.0 0.00 0.76 0.00 78 1019.1
20260901141513 73 131 2.0 4.0 0.00 0.76 0.00 79 1019.0
20260901141013 73 131 2.0 4.0 0.00 0.76 0.00 80 1019.0
20260901140528 73 132 2.0 3.0 0.00 0.76 0.00 80 1018.9
20260901140036 73 132 1.0 2.0 0.00 0.76 0.00 81 1018.9
20260901135517 72 132 0.0 1.0 0.00 0.77 0.00 82 1018.7
20260901135013 72 132 0.0 0.0 0.00 0.77 0.00 83 1018.6
20260901134528 72 132 0.0 0.0 0.00 0.77 0.00 84 1018.7
20260901134024 72 132 0.0 0.0 0.00 0.77 0.00 85 1018.7
20260901133519 71 132 0.0 0.0 0.00 0.77 0.00 86 1018.7
20260901133019 70 132 0.0 0.0 0.00 0.77 0.00 86 1018.7
20260901132513 70 132 0.0 0.0 0.00 0.77 0.00 86 1018.4
20260901132028 70 132 0.0 0.0 0.00 0.77 0.00 87 1018.5
20260901131524 69 132 0.0 0.0 0.00 0.77 0.00 87 1018.5
20260901131019 69 132 0.0 0.0 0.00 0.77 0.00 87 1018.5
20260901130513 69 132 0.0 0.0 0.00 0.77 0.00 87 1018.4
20260901130041 69 132 0.0 0.0 0.00 0.77 0.00 87 1018.3
20260901125526 70 132 0.0 0.0 0.00 1.10 0.00 86 1018.3
20260901125020 70 132 0.0 0.0 0.00 1.10 0.00 86 1018.0
20260901124516 70 132 0.0 0.0 0.00 1.10 0.00 86 1017.9
20260901124031 70 132 0.0 0.0 0.00 1.10 0.00 86 1017.8
20260901123527 70 132 0.0 0.0 0.00 1.10 0.00 86 1017.8
20260901123023 70 132 0.0 0.0 0.00 1.10 0.00 85 1017.7
20260901122518 70 132 0.0 0.0 0.00 1.10 0.00 85 1017.7
20260901122018 70 132 0.0 0.0 0.00 1.10 0.00 85 1017.7
20260901121513 70 132 0.0 3.0 0.00 1.10 0.00 85 1017.7
20260901121028 70 132 1.0 3.0 0.00 1.10 0.00 85 1017.7
20260901120524 70 132 1.0 2.0 0.00 1.10 0.00 85 1017.7
20260901120032 70 132 1.0 4.0 0.00 1.10 0.00 85 1017.6
20260901115532 70 132 1.0 4.0 0.00 1.25 0.00 84 1017.6
20260901115027 71 132 2.0 4.0 0.00 1.25 0.00 84 1017.5
20260901114521 70 133 2.0 4.0 0.00 1.25 0.00 84 1017.5
20260901114020 71 133 2.0 4.0 0.00 1.25 0.00 84 1017.5
20260901113515 71 133 2.0 4.0 0.00 1.25 0.00 84 1017.5
20260901113030 70 134 2.0 4.0 0.00 1.25 0.00 84 1017.6
20260901112524 70 135 2.0 4.0 0.00 1.25 0.00 84 1017.6
20260901112019 70 136 3.0 4.0 0.00 1.25 0.00 84 1017.6
20260901111514 71 137 3.0 4.0 0.00 1.25 0.00 84 1017.5
20260901111030 71 137 3.0 4.0 0.00 1.25 0.00 84 1017.6
20260901110528 70 138 2.0 4.0 0.00 1.25 0.00 84 1017.5
20260901110040 70 139 2.0 4.0 0.00 1.25 0.00 84 1017.6
20260901105522 70 140 2.0 4.0 0.00 1.25 0.00 84 1017.6
20260901105016 71 140 1.0 3.0 0.00 1.25 0.00 83 1017.5
20260901104531 71 140 1.0 3.0 0.00 1.25 0.00 83 1017.5
20260901104026 71 140 1.0 3.0 0.00 1.25 0.00 82 1017.5
20260901103522 71 140 2.0 3.0 0.00 1.25 0.00 81 1017.5
20260901103017 72 141 1.0 3.0 0.00 1.25 0.00 81 1017.5
20260901102517 72 141 1.0 5.0 0.00 1.25 0.00 81 1017.4
20260901102013 72 141 2.0 5.0 0.00 1.25 0.00 81 1017.4
20260901101527 72 142 2.0 4.0 0.00 1.25 0.00 81 1017.2
20260901101023 72 143 2.0 3.0 0.00 1.25 0.00 81 1017.3
20260901100518 72 143 2.0 3.0 0.00 1.25 0.00 81 1017.2
20260901100045 72 144 1.0 3.0 0.00 1.25 0.00 80 1017.1
20260901095525 72 144 1.0 4.0 0.00 1.25 0.00 80 1017.2
20260901095023 72 144 1.0 4.0 0.00 1.25 0.00 81 1017.3
20260901094517 72 144 2.0 4.0 0.00 1.25 0.00 80 1017.3
20260901094011 72 146 2.0 4.0 0.00 1.25 0.00 78 1017.2
20260901093526 73 146 2.0 4.0 0.00 1.25 0.00 78 1017.2
20260901093020 73 148 2.0 4.0 0.00 1.25 0.00 78 1017.1
20260901092514 73 148 1.0 4.0 0.00 1.25 0.00 77 1017.2
20260901092028 72 148 1.0 2.0 0.00 1.25 0.00 78 1017.2
20260901091522 73 148 1.0 2.0 0.00 1.25 0.00 78 1017.2
20260901091021 72 148 0.0 3.0 0.00 1.25 0.00 79 1017.3
20260901090515 72 148 2.0 3.0 0.00 1.25 0.00 79 1017.3
20260901090042 72 148 2.0 3.0 0.00 1.25 0.00 79 1017.3
20260901085522 73 148 0.0 2.0 0.00 1.25 0.00 78 1017.3
20260901085016 73 148 0.0 2.0 0.00 1.25 0.00 78 1017.3
20260901084530 73 148 1.0 3.0 0.00 1.25 0.00 77 1017.3
20260901084025 73 148 1.0 3.0 0.00 1.25 0.00 77 1017.3
20260901083524 73 148 1.0 3.0 0.00 1.25 0.00 78 1017.3
20260901083018 73 148 1.0 3.0 0.00 1.25 0.00 77 1017.2
20260901082512 73 148 2.0 5.0 0.00 1.25 0.00 77 1017.3
20260901082027 73 148 2.0 5.0 0.00 1.25 0.00 77 1017.2
20260901081521 73 148 1.0 3.0 0.00 1.25 0.00 77 1017.4
20260901081016 73 148 2.0 3.0 0.00 1.25 0.00 76 1017.3
20260901080531 74 147 1.0 4.0 0.00 1.25 0.00 76 1017.5
20260901080038 73 147 1.0 4.0 0.00 1.25 0.00 76 1017.5
20260901075522 73 147 2.0 4.0 0.00 1.25 0.00 76 1017.4
20260901075017 73 147 2.0 3.0 0.00 1.25 0.00 77 1017.5
20260901074512 73 146 2.0 3.0 0.00 1.25 0.00 77 1017.4
20260901074026 73 146 1.0 2.0 0.00 1.25 0.00 77 1017.6
20260901073521 73 146 1.0 2.0 0.00 1.25 0.00 77 1017.6
20260901073015 73 146 0.0 3.0 0.00 1.25 0.00 76 1017.5
20260901072529 74 146 1.0 3.0 0.00 1.25 0.00 76 1017.6
20260901072028 74 146 1.0 3.0 0.00 1.25 0.00 75 1017.6
20260901071522 74 146 1.0 4.0 0.00 1.25 0.00 75 1017.6
20260901071016 74 146 2.0 4.0 0.00 1.25 0.00 74 1017.6
20260901070530 75 146 2.0 5.0 0.00 1.25 0.00 74 1017.5
20260901070037 75 146 2.0 5.0 0.00 1.25 0.00 74 1017.6
20260901065517 75 147 3.0 6.0 0.00 1.25 1.25 74 1017.5
20260901065012 75 140 3.0 6.0 0.00 1.25 1.25 74 1017.5
20260901064527 75 142 3.0 5.0 0.00 1.25 1.25 74 1017.6
20260901064025 75 142 2.0 5.0 0.00 1.25 1.25 74 1017.7
20260901063520 75 144 2.0 5.0 0.00 1.25 1.25 75 1017.7
20260901063014 74 148 3.0 6.0 0.00 1.25 1.25 76 1017.8
20260901062529 75 151 2.0 6.0 0.00 1.25 1.25 75 1017.8
20260901062023 75 159 3.0 6.0 0.00 1.25 1.25 75 1017.7
20260901061518 75 116 2.0 6.0 0.00 1.25 1.25 76 1017.9
20260901061012 75 115 3.0 6.0 0.00 1.25 1.25 76 1017.9
20260901060531 74 114 3.0 4.0 0.00 1.25 1.25 77 1017.8
20260901060036 74 113 2.0 4.0 0.00 1.25 1.25 77 1017.7
20260901055517 75 109 2.0 4.0 0.00 1.25 1.25 78 1017.7
20260901055031 75 109 2.0 4.0 0.00 1.25 1.25 78 1017.7
20260901054525 75 109 1.0 3.0 0.00 1.25 1.25 78 1017.7
20260901054020 75 109 2.0 3.0 0.00 1.25 1.25 77 1017.8
20260901053514 75 109 2.0 3.0 0.00 1.25 1.25 76 1017.7
20260901053013 75 109 2.0 5.0 0.00 1.25 1.25 77 1017.5
20260901052527 75 109 3.0 5.0 0.00 1.25 1.25 77 1017.5
20260901052021 75 106 3.0 5.0 0.00 1.25 1.25 77 1017.5
20260901051516 75 101 2.0 3.0 0.00 1.25 1.25 77 1017.6
20260901051031 75 101 2.0 3.0 0.00 1.25 1.25 77 1017.7
20260901050525 76 101 2.0 3.0 0.00 1.25 1.25 77 1017.7
20260901050032 76 101 2.0 4.0 0.00 1.25 1.25 76 1017.7
20260901045511 76 101 2.0 5.0 0.00 1.25 1.25 75 1017.8
20260901045030 76 101 3.0 5.0 0.00 1.25 1.25 75 1017.9
20260901044524 76 100 3.0 5.0 0.00 1.25 1.25 76 1017.9
20260901044019 76 99 2.0 4.0 0.00 1.25 1.25 76 1017.8
20260901043512 76 98 2.0 3.0 0.00 1.25 1.25 76 1017.9
20260901043026 76 98 2.0 4.0 0.00 1.25 1.25 76 1017.8
20260901042521 76 99 3.0 4.0 0.00 1.25 1.25 76 1017.6
20260901041520 76 99 2.0 3.0 0.00 1.25 1.25 76 1017.5
20260901041014 76 99 1.0 3.0 0.00 1.25 1.25 75 1017.5
20260901040528 76 99 1.0 3.0 0.00 1.25 1.25 75 1017.5
20260901040036 76 99 1.0 3.0 0.00 1.25 1.25 74 1017.5
20260901035517 76 99 1.0 3.0 0.00 1.25 1.25 75 1017.7
20260901035031 76 99 1.0 2.0 0.00 1.25 1.25 75 1017.5
20260901034525 75 99 1.0 2.0 0.00 1.25 1.25 78 1017.4
20260901034020 75 99 1.0 2.0 0.00 1.25 1.25 79 1017.4
20260901033518 76 99 0.0 0.0 0.00 1.25 1.25 77 1017.5
20260901033033 76 99 0.0 2.0 0.00 1.25 1.25 75 1017.4
20260901032527 75 99 1.0 2.0 0.00 1.25 1.25 77 1017.3
20260901032021 75 99 1.0 2.0 0.00 1.25 1.25 79 1017.2
20260901031515 76 99 1.0 2.0 0.00 1.25 1.25 78 1017.2
20260901031029 76 99 0.0 1.0 0.00 1.25 1.25 75 1017.1
20260901030524 76 99 0.0 1.0 0.00 1.25 1.25 74 1017.1
20260901030034 76 99 1.0 2.0 0.00 1.25 1.25 74 1017.0
20260901025534 77 99 0.0 2.0 0.00 1.25 1.25 74 1017.0
20260901025029 76 99 0.0 2.0 0.00 1.25 1.25 74 1016.9
20260901024524 76 99 1.0 2.0 0.00 1.25 1.25 74 1017.0
20260901024018 77 99 0.0 2.0 0.00 1.25 1.25 73 1016.7
20260901023533 77 99 1.0 2.0 0.00 1.25 1.25 72 1016.7
20260901023027 77 99 1.0 3.0 0.00 1.25 1.25 70 1016.6
20260901022522 77 99 2.0 3.0 0.00 1.25 1.25 70 1016.4
20260901022022 77 99 0.0 2.0 0.00 1.25 1.25 70 1016.4
20260901021518 77 99 1.0 2.0 0.00 1.25 1.25 70 1016.5
20260901021033 77 99 1.0 3.0 0.00 1.25 1.25 69 1016.4
20260901020528 78 99 1.0 3.0 0.00 1.25 1.25 69 1016.0
20260901020035 78 99 1.0 2.0 0.00 1.25 1.25 69 1016.0
20260901015515 78 99 1.0 2.0 0.00 1.25 1.25 68 1016.0
20260901015030 78 99 1.0 2.0 0.00 1.25 1.25 69 1016.0
20260901014529 78 99 0.0 2.0 0.00 1.25 1.25 71 1016.0
20260901014024 78 98 1.0 2.0 0.00 1.25 1.25 70 1015.9
20260901013518 77 99 0.0 3.0 0.00 1.25 1.25 71 1015.9
20260901013032 78 99 0.0 4.0 0.00 1.25 1.25 68 1015.7
20260901012526 78 99 2.0 4.0 0.00 1.25 1.25 68 1015.4
20260901012021 78 98 1.0 2.0 0.00 1.25 1.25 68 1015.5
20260901011515 78 98 1.0 3.0 0.00 1.25 1.25 68 1015.5
20260901011029 78 98 1.0 3.0 0.00 1.25 1.25 68 1015.4
20260901010529 79 98 2.0 4.0 0.00 1.25 1.25 68 1015.5
20260901010034 79 99 2.0 4.0 0.00 1.25 1.25 68 1015.4
20260901005515 79 99 3.0 4.0 0.00 1.25 1.25 67 1015.4
20260901005030 79 98 3.0 4.0 0.00 1.25 1.25 67 1015.5
20260901004524 79 99 2.0 5.0 0.00 1.25 1.25 67 1015.5
20260901004018 79 99 3.0 5.0 0.00 1.25 1.25 66 1015.6
20260901003533 79 100 3.0 5.0 0.00 1.25 1.25 65 1015.5
20260901003032 79 100 2.0 3.0 0.00 1.25 1.25 66 1015.5
20260901002526 79 100 1.0 3.0 0.00 1.25 1.25 68 1015.7
20260901002020 79 100 1.0 5.0 0.00 1.25 1.25 67 1015.8
20260901001514 79 100 3.0 5.0 0.00 1.25 1.25 67 1015.8
20260901001028 79 108 2.0 5.0 0.00 1.25 1.25 68 1015.8
20260901000523 79 146 2.0 5.0 0.00 1.25 1.25 67 1015.8
20260901000029 79 148 2.0 5.0 0.00 1.25 1.25 66 1015.8
20260831235529 79 149 2.0 8.0 0.00 1.25 1.25 66 1015.9
20260831235027 80 133 3.0 8.0 0.00 1.25 1.25 67 1016.0
20260831234522 79 137 3.0 6.0 0.00 1.25 1.25 67 1016.0
20260831234017 79 207 2.0 6.0 0.00 1.25 1.25 67 1015.9
20260831233531 78 110 4.0 8.0 0.00 1.25 1.25 68 1016.1
20260831233026 78 115 5.0 8.0 0.00 1.25 1.25 68 1016.0
20260831232521 78 109 4.0 8.0 0.00 1.25 1.25 68 1016.0
20260831232015 79 92 5.0 8.0 0.00 1.25 1.25 67 1016.1
20260831231534 78 129 5.0 9.0 0.00 1.25 1.25 64 1016.3
20260831231025 78 116 4.0 9.0 0.00 1.25 1.25 64 1016.1
20260831230519 78 77 5.0 9.0 0.00 1.25 1.25 67 1016.1
20260831230046 78 110 5.0 9.0 0.00 1.25 1.25 67 1016.1
20260831225528 78 104 5.0 11.0 0.00 1.25 1.25 68 1016.1
20260831225022 77 124 6.0 13.0 0.00 1.25 1.25 68 1016.3
20260831224517 78 99 5.0 14.0 0.00 1.25 1.25 70 1016.4
20260831224016 77 113 8.0 15.0 0.00 1.25 1.25 70 1016.4
20260831223530 77 104 8.0 14.0 0.00 1.25 1.25 70 1016.5
20260831223023 77 185 6.0 12.0 0.00 1.25 1.25 72 1016.7
20260831222517 77 140 4.0 12.0 0.00 1.25 1.25 75 1016.7
20260831222030 76 146 6.0 11.0 0.00 1.25 1.25 75 1016.7
20260831221524 76 136 5.0 11.0 0.00 1.25 1.25 75 1016.8
20260831221018 76 122 7.0 11.0 0.00 1.25 1.25 75 1016.9
20260831220532 76 112 5.0 11.0 0.00 1.25 1.25 77 1017.0
20260831220042 76 140 6.0 11.0 0.00 1.25 1.25 78 1017.1
20260831215520 75 122 5.0 11.0 0.00 1.25 1.25 79 1017.3
20260831215034 75 111 6.0 11.0 0.00 1.25 1.25 78 1017.4
20260831214528 75 133 6.0 11.0 0.00 1.25 1.25 80 1017.4
20260831214022 74 134 3.0 9.0 0.01 1.25 1.25 83 1017.5
20260831213516 74 204 3.0 6.0 0.01 1.25 1.25 85 1017.8
20260831213031 73 159 3.0 6.0 0.02 1.25 1.25 87 1018.2
20260831212525 72 191 3.0 6.0 0.03 1.25 1.25 90 1018.3
20260831212023 71 204 2.0 6.0 0.03 1.25 1.25 91 1018.3
20260831211517 70 200 2.0 5.0 0.05 1.25 1.25 92 1018.5
20260831211032 70 134 2.0 8.0 0.06 1.25 1.25 92 1018.6
20260831210525 69 206 2.0 9.0 0.07 1.25 1.25 92 1018.8
20260831210031 69 137 3.0 10.0 0.07 1.25 1.25 92 1019.1
20260831205531 69 142 4.0 10.0 0.08 1.25 1.25 92 1019.2
20260831205025 68 216 4.0 8.0 0.08 1.25 1.25 92 1019.5
20260831204523 68 173 2.0 10.0 0.09 1.25 1.25 92 1019.4
20260831204016 68 124 6.0 10.0 0.09 1.24 1.24 92 1019.3
20260831203530 68 92 5.0 8.0 0.10 1.24 1.24 92 1019.5
20260831203024 68 117 4.0 8.0 0.10 1.23 1.23 92 1019.9
20260831202518 68 130 4.0 6.0 0.09 1.22 1.22 92 1020.2
20260831202033 68 135 2.0 8.0 0.10 1.22 1.22 92 1020.4
20260831201527 68 135 4.0 8.0 0.08 1.20 1.20 93 1020.4
20260831201021 68 117 2.0 5.0 0.08 1.19 1.19 93 1020.7
20260831200519 68 129 2.0 8.0 0.07 1.18 1.18 93 1020.8
20260831200047 68 125 4.0 8.0 0.08 1.18 1.18 92 1020.7
20260831195527 68 135 4.0 8.0 0.07 1.17 1.17 93 1020.8
20260831195020 68 124 3.0 6.0 0.09 1.17 1.17 93 1020.9
20260831194514 68 177 3.0 7.0 0.09 1.16 1.16 93 1021.0
20260831194029 67 253 2.0 7.0 0.08 1.15 1.15 93 1021.2
20260831193524 68 254 3.0 7.0 0.08 1.14 1.14 93 1021.3
20260831193023 68 274 3.0 7.0 0.08 1.13 1.13 93 1021.3
20260831192517 69 312 1.0 5.0 0.09 1.13 1.13 93 1021.3
20260831192032 68 312 2.0 4.0 0.09 1.12 1.12 93 1021.3
20260831191526 68 313 2.0 3.0 0.09 1.12 1.12 93 1021.4
20260831191020 68 313 1.0 3.0 0.09 1.11 1.11 92 1021.3
20260831190515 69 314 1.0 5.0 0.15 1.11 1.11 93 1021.2
20260831190043 68 314 2.0 5.0 0.24 1.10 1.10 92 1021.4
20260831185522 68 314 1.0 3.0 0.29 1.10 1.10 92 1021.8
20260831185020 69 314 1.0 3.0 0.32 1.08 1.08 92 1021.8
20260831184514 68 314 0.0 2.0 0.32 1.07 1.07 92 1021.8
20260831184028 68 314 0.0 2.0 0.32 1.07 1.07 92 1021.9
20260831183522 69 314 0.0 1.0 0.31 1.06 1.06 92 1021.7
20260831183015 68 314 0.0 3.0 0.31 1.05 1.05 92 1021.7
20260831182529 68 314 1.0 5.0 0.30 1.04 1.04 92 1021.4
20260831182023 68 315 1.0 7.0 0.30 1.03 1.03 92 1021.4
20260831181521 68 295 3.0 8.0 0.36 1.03 1.03 92 1021.5
20260831181015 68 287 3.0 11.0 0.48 1.01 1.01 92 1021.6
20260831180529 68 289 4.0 11.0 0.47 0.96 0.96 92 1021.8
20260831180036 68 280 6.0 10.0 0.37 0.86 0.86 91 1021.8
20260831175515 69 299 2.0 5.0 0.31 0.80 0.80 91 1021.8
20260831175029 69 297 2.0 8.0 0.27 0.76 0.76 91 1021.8
20260831174523 69 296 2.0 8.0 0.26 0.75 0.75 91 1021.6
20260831174017 70 325 1.0 5.0 0.26 0.75 0.75 91 1021.6
20260831173515 70 325 2.0 5.0 0.26 0.75 0.75 91 1021.4
20260831173030 70 314 2.0 5.0 0.25 0.74 0.74 90 1021.2